TimeEST,TemperatureF,Dew PointF,Humidity,Sea Level PressureIn,VisibilityMPH,Wind Direction,Wind SpeedMPH,Gust SpeedMPH,PrecipitationIn,Events,Conditions,WindDirDegrees,DateUTC
12:52 AM,27.0,19.0,72,30.10,10.0,NE,3.5,-,N/A,,Clear,40,2013-03-05 05:52:00
2:52 AM,25.0,19.0,78,30.09,10.0,ENE,3.5,-,N/A,,Clear,60,2013-03-05 07:52:00
3:52 AM,24.1,19.9,84,30.06,10.0,SE,5.8,-,N/A,,Clear,130,2013-03-05 08:52:00
4:52 AM,24.1,19.9,84,30.06,10.0,East,5.8,-,N/A,,Mostly Cloudy,90,2013-03-05 09:52:00
5:52 AM,25.0,19.9,81,30.05,10.0,East,8.1,-,N/A,,Overcast,100,2013-03-05 10:52:00
6:52 AM,25.0,18.0,75,30.03,10.0,East,8.1,-,N/A,,Overcast,90,2013-03-05 11:52:00
7:52 AM,26.1,17.1,69,30.02,10.0,East,9.2,-,N/A,,Clear,80,2013-03-05 12:52:00
8:52 AM,27.0,19.0,72,30.03,10.0,East,11.5,-,N/A,,Mostly Cloudy,100,2013-03-05 13:52:00
9:52 AM,28.9,18.0,64,30.02,10.0,ESE,10.4,-,N/A,,Overcast,120,2013-03-05 14:52:00
10:52 AM,30.9,19.0,61,29.99,10.0,East,10.4,-,N/A,,Overcast,90,2013-03-05 15:52:00
11:52 AM,33.1,19.9,59,29.96,10.0,East,12.7,-,N/A,,Clear,90,2013-03-05 16:52:00
12:52 PM,35.1,21.9,59,29.92,10.0,East,11.5,-,N/A,,Mostly Cloudy,80,2013-03-05 17:52:00
1:52 PM,37.4,21.2,52,29.83,10.0,East,12.7,-,N/A,,Overcast,90,2013-03-05 18:52:00
2:52 PM,37.9,19.9,48,29.82,10.0,East,13.8,19.6,N/A,,Overcast,80,2013-03-05 19:52:00
3:52 PM,37.9,21.0,51,29.79,10.0,ENE,11.5,-,N/A,,Overcast,70,2013-03-05 20:52:00
4:52 PM,37.9,21.0,51,29.77,9.0,ENE,11.5,-,0.00,Snow,Light Snow,70,2013-03-05 21:52:00
5:52 PM,37.0,23.0,57,29.73,10.0,NE,12.7,-,0.00,,Overcast,50,2013-03-05 22:52:00
6:52 PM,37.0,23.0,57,29.72,10.0,ENE,13.8,-,N/A,,Overcast,60,2013-03-05 23:52:00
7:52 PM,37.0,21.0,52,29.68,10.0,NE,16.1,24.2,N/A,,Overcast,50,2013-03-06 00:52:00
8:52 PM,35.6,19.4,52,29.62,10.0,ENE,13.8,21.9,N/A,,Overcast,60,2013-03-06 01:52:00
9:52 PM,35.1,21.9,59,29.64,10.0,NNE,11.5,-,N/A,,Overcast,30,2013-03-06 02:52:00
10:52 PM,35.1,24.1,64,29.65,10.0,ENE,11.5,18.4,N/A,,Overcast,60,2013-03-06 03:52:00
11:39 PM,32.0,26.6,80,29.62,2.5,NNE,9.2,-,0.00,Snow,Light Snow,20,2013-03-06 04:39:00
11:47 PM,32.0,26.6,80,29.62,3.0,NNE,6.9,-,0.00,Snow,Light Snow,20,2013-03-06 04:47:00
11:52 PM,32.0,28.0,85,29.65,3.0,NNE,6.9,-,0.00,Snow,Light Snow,20,2013-03-06 04:52:00